Location: La Pernelle
(49.6188°N, 1.2999°W)
Time: 10:55:36
(UTC+00:00)

Cosmos 1954 Rocket - Pass Details

Date: 27 October 2021
Orbit: 751 x 782 km, 74.0° (Epoch: 26 November)

Event Time Altitude Azimuth Distance (km) Brightness Sun altitude
Rises 18:11:10 0° 341° (NNW) 3,240 7.4 -13.5°
Reaches altitude 10° 18:13:50 10° 352° (N) 2,315 6.5 -13.9°
Maximum altitude 18:18:26 30° 53° (NE) 1,367 4.9 -14.6°
Enters shadow 18:20:27 23° 90° (E) 1,596 5.0 -15.0°
